Wind_Speed
40 40 40 40 39 39 40 40 40 38 37 35 36 37 36 36 36 35 36 36 37 37 38 39 39 40 41 42 43 44 43 44 44 45 45 46 46 46 47 47 48 48 49 50
41 40 40 41 41 41 41 41 41 40 39 37 38 39 39 39 39 38 38 39 40 40 41 41 42 42 43 44 45 46 46 46 46 47 47 48 48 48 49 49 49 50 51 52
41 41 42 44 42 42 42 42 41 42 40 39 40 41 41 41 41 41 41 41 42 43 43 44 44 44 45 46 46 46 47 47 47 48 48 49 50 50 51 51 52 52 53 54
41 41 44 42 42 42 42 42 42 42 41 41 41 42 42 42 42 43 43 43 44 45 45 45 46 46 46 47 46 46 47 47 48 49 50 51 52 52 53 53 54 54 55 55
41 41 42 41 41 41 41 42 42 42 42 42 43 43 43 43 43 43 44 44 45 46 46 47 47 47 47 48 48 48 48 49 49 50 51 52 53 53 54 54 55 55 55 55
41 42 41 39 40 41 42 42 41 42 42 42 43 43 43 44 44 44 45 45 46 46 46 47 47 48 48 49 49 50 50 51 51 51 52 52 53 54 54 54 54 54 54 54
39 41 40 39 39 40 42 41 41 41 41 41 42 43 44 45 45 45 45 45 45 46 47 47 48 49 49 49 50 50 51 51 51 52 52 52 52 52 52 52 52 52 52 52
36 38 38 37 38 39 40 40 40 41 41 41 42 43 43 44 44 45 45 45 45 46 46 47 48 49 49 49 50 51 51 51 51 51 51 51 51 51 51 50 50 50 50 49
35 36 36 37 38 38 39 39 40 41 41 41 42 42 42 43 44 44 44 45 46 46 46 47 48 49 49 50 50 51 51 52 52 52 51 50 50 49 48 48 48 48 48 47
37 36 35 35 36 38 39 39 39 39 40 41 41 41 42 42 43 43 44 45 46 46 47 47 48 49 50 51 52 52 52 51 51 51 50 49 48 47 47 46 46 46 46 46
38 37 37 37 37 38 38 39 39 40 40 41 41 41 41 42 42 43 44 45 46 46 47 47 48 49 50 51 52 51 50 50 49 49 48 47 46 46 46 46 45 45 45 45
38 38 38 38 38 39 39 39 39 40 40 41 41 41 41 41 42 42 43 44 45 45 46 47 48 48 49 50 50 50 49 48 47 46 46 45 45 45 44 44 44 44 44 44
37 38 39 39 39 39 39 38 38 39 39 40 40 41 41 41 42 43 43 44 45 45 46 46 47 47 47 47 47 47 47 46 44 44 43 43 44 44 44 43 43 43 44 44
36 37 38 38 38 39 39 38 38 38 38 38 39 39 40 41 41 42 42 42 43 43 44 44 45 45 45 45 45 44 44 43 43 42 42 43 43 43 43 42 42 42 42 42
35 35 36 36 36 37 37 38 38 38 38 38 38 39 40 40 40 40 40 41 41 42 42 43 44 43 43 43 42 42 42 42 42 42 42 42 42 42 41 42 42 42 41 40
33 33 34 34 35 35 36 37 37 37 38 38 39 39 40 40 40 40 40 40 40 40 40 40 40 40 41 41 41 41 40 41 41 41 41 41 40 40 40 40 40 40 39 39
30 31 32 33 34 35 36 36 37 37 37 38 38 39 39 40 40 40 40 40 40 39 38 39 39 39 39 39 39 39 40 40 40 40 39 39 39 39 38 39 38 38 37 38
29 30 31 32 32 33 34 35 36 36 37 38 38 38 39 39 39 39 39 39 39 39 39 39 39 39 38 38 38 38 38 38 38 38 38 37 37 37 37 37 37 36 36 36
27 29 30 31 32 33 33 34 35 36 36 37 37 38 38 38 39 39 38 38 38 38 38 39 38 38 37 37 37 37 36 36 36 36 35 35 35 35 35 35 35 35 35 35
26 27 28 29 30 31 32 32 33 34 35 35 36 36 36 36 36 36 36 36 36 37 36 36 35 35 35 35 35 35 34 34 33 33 32 33 33 33 34 34 34 34 33 33
26 26 26 28 29 30 30 31 32 32 33 33 34 34 33 33 34 34 34 34 34 35 34 34 33 33 33 33 32 32 32 31 31 31 32 32 32 32 32 32 32 32 31 31
27 28 28 28 29 30 30 30 31 31 31 32 32 32 32 32 32 32 33 33 32 33 32 32 32 31 31 31 30 30 29 29 30 30 30 30 30 30 29 29 29 29 28 28
29 29 30 30 30 30 29 30 30 30 30 30 30 31 31 31 31 31 30 31 31 31 30 30 30 30 29 29 29 28 27 27 27 27 27 27 27 26 26 26 26 25 25 24
30 30 30 30 30 30 29 29 29 29 29 29 29 29 29 29 29 29 29 28 29 28 28 28 28 28 27 27 26 25 25 25 25 24 24 24 24 23 23 23 23 22 22 22
30 30 29 29 28 28 28 28 28 28 28 28 28 28 28 28 27 27 27 27 27 26 26 26 26 25 24 24 23 23 23 24 23 23 23 22 22 21 21 21 20 20 20 20
28 28 27 27 26 26 26 27 27 27 27 26 26 26 26 26 26 25 25 25 25 24 24 23 23 23 22 22 22 22 23 23 22 22 22 21 21 20 20 20 20 20 19 19
26 26 26 25 25 25 25 25 25 25 25 25 25 26 26 25 25 25 24 24 23 23 23 22 22 22 21 21 21 21 21 21 21 21 20 20 20 19 19 19 18 18 18 18
Wind_Direction
254 254 253 252 251 251 252 254 255 256 256 256 258 260 261 261 260 259 260 260 259 260 262 263 265 267 268 268 269 270 270 271 271 270 270 269 269 270 270 270 270 270 272 273
253 253 253 252 251 252 253 253 255 256 257 258 259 259 260 261 261 260 261 261 261 262 263 264 266 267 269 270 270 270 271 271 272 272 271 271 271 271 270 270 271 272 273 274
252 252 253 251 251 253 255 255 256 256 257 257 257 258 260 261 262 261 262 263 263 264 265 266 266 267 268 269 271 272 272 272 272 271 271 271 272 272 272 272 272 273 274 275
252 252 253 253 253 253 253 254 255 256 256 257 258 259 260 261 261 261 263 264 265 266 266 267 268 269 269 270 271 272 273 273 272 272 272 272 272 273 273 273 274 274 275 276
253 254 255 253 253 254 255 256 256 257 258 259 260 260 261 262 263 263 264 266 267 267 268 269 270 270 271 271 272 272 273 274 275 275 274 274 274 274 274 274 274 275 275 276
253 255 256 255 255 255 256 257 258 259 260 260 261 262 262 263 264 265 266 267 268 268 269 270 270 271 272 272 272 273 274 275 276 276 276 276 276 276 276 276 275 275 275 276
253 255 256 255 255 256 257 258 259 260 262 262 262 264 264 264 265 266 267 268 269 269 270 270 270 271 272 273 273 274 274 275 276 277 277 277 277 277 277 276 276 275 276 276
251 252 254 255 256 257 259 259 261 262 264 265 265 266 266 266 267 268 269 269 270 270 271 272 272 272 273 274 274 275 275 276 276 277 277 277 277 277 277 276 276 276 276 276
253 255 256 256 257 258 260 261 262 263 265 266 267 267 267 267 268 269 269 270 271 271 272 273 273 274 274 274 275 275 276 276 276 276 277 276 276 276 276 276 276 276 276 276
253 254 256 257 259 260 262 262 263 265 266 266 267 268 268 268 269 269 270 270 271 271 272 272 273 273 274 274 275 276 276 276 276 276 276 275 275 275 275 276 276 276 276 276
253 255 257 257 259 260 262 263 264 265 266 266 267 268 268 269 269 271 271 271 272 272 273 273 274 275 275 275 276 276 276 276 276 276 275 274 274 275 275 275 275 276 276 276
255 256 258 259 259 260 261 263 263 264 265 266 268 269 269 269 271 272 272 273 273 274 274 275 275 276 277 276 276 276 276 276 276 275 274 274 274 275 276 276 275 276 277 276
256 256 258 259 259 260 260 261 262 264 266 267 269 269 269 270 271 273 274 274 275 275 276 276 276 277 276 276 275 275 275 276 275 274 273 274 275 276 276 276 276 276 277 277
257 257 257 257 258 259 260 263 264 266 267 268 269 269 270 271 272 273 275 275 276 276 277 277 277 276 276 276 276 275 275 275 274 274 274 275 275 275 276 276 276 276 276 276
259 259 259 258 258 260 262 264 265 266 266 267 269 271 272 273 275 275 276 276 277 278 278 278 277 277 275 275 275 275 274 274 274 274 274 274 275 275 276 276 276 276 276 276
261 262 261 262 262 263 264 265 267 267 268 270 271 273 274 275 276 276 277 278 279 279 279 279 279 277 276 275 275 275 275 275 275 275 274 273 274 275 275 276 277 277 275 276
263 263 263 265 266 266 267 267 268 269 270 271 272 272 274 275 276 277 278 279 280 280 279 279 279 278 277 277 276 276 275 275 275 275 274 273 274 274 275 276 277 276 275 275
265 265 265 266 268 269 270 269 269 270 271 272 272 272 274 275 276 277 278 278 279 279 279 279 279 279 278 277 278 277 276 275 275 275 274 274 274 274 274 275 275 275 274 274
267 267 268 269 270 271 272 271 271 271 272 273 273 273 274 276 277 277 278 279 279 279 279 280 279 279 278 278 279 278 277 276 275 275 274 274 274 274 274 275 275 274 274 274
268 270 271 272 273 273 274 274 274 274 275 275 274 273 274 276 277 277 278 279 280 279 279 279 278 278 278 278 279 278 276 276 275 274 274 274 275 275 274 274 275 276 275 274
272 274 274 274 275 275 275 276 276 276 277 276 275 275 276 277 277 279 279 280 280 279 279 278 278 278 278 278 278 278 277 275 274 274 274 275 276 276 276 275 276 276 276 275
273 274 276 277 277 277 278 278 278 278 278 277 276 276 277 278 280 281 281 281 281 280 280 279 278 278 278 277 277 277 276 275 275 275 275 275 276 277 276 275 276 276 275 273
274 275 277 277 277 277 278 280 280 280 279 278 278 278 278 279 281 282 282 282 282 281 280 279 278 278 278 278 278 277 276 276 276 276 276 276 277 277 275 274 274 274 272 271
276 277 279 278 277 277 278 279 281 281 280 279 279 279 279 280 281 282 283 283 284 283 281 279 278 278 278 277 276 276 276 276 277 278 277 277 276 275 273 273 272 271 270 269
277 278 278 277 277 277 279 281 282 281 280 280 279 279 280 280 281 282 282 283 284 283 281 280 279 277 276 275 275 276 277 278 278 278 277 276 274 273 272 271 270 270 269 269
277 277 277 277 278 279 279 280 281 279 279 280 279 279 280 281 281 282 282 281 282 282 281 280 277 275 274 274 276 277 279 280 279 279 278 276 274 273 271 270 270 269 269 268
276 276 276 276 277 278 279 280 281 280 280 280 280 280 281 281 282 283 282 282 281 281 280 278 276 274 272 273 276 279 280 280 280 280 278 276 274 272 270 269 269 269 269 268
Height
5601 5604 5606 5609 5613 5614 5616 5619 5621 5626 5627 5630 5631 5631 5632 5632 5633 5634 5635 5636 5637 5637 5638 5639 5639 5640 5639 5639 5639 5638 5638 5638 5638 5638 5638 5637 5637 5637 5636 5636 5636 5635 5635 5635
5590 5593 5595 5597 5601 5603 5606 5608 5611 5614 5617 5620 5620 5620 5621 5622 5623 5624 5625 5626 5626 5627 5627 5628 5628 5629 5628 5628 5628 5627 5626 5626 5625 5625 5624 5624 5623 5623 5623 5622 5621 5621 5620 5620
5578 5581 5582 5585 5591 5594 5596 5599 5601 5603 5608 5608 5609 5609 5610 5611 5612 5613 5614 5614 5615 5616 5616 5616 5616 5616 5616 5616 5615 5615 5614 5613 5612 5612 5611 5610 5609 5609 5608 5607 5607 5606 5606 5605
5567 5570 5570 5578 5581 5583 5585 5587 5589 5592 5595 5596 5597 5598 5599 5600 5600 5601 5602 5603 5603 5604 5604 5604 5604 5603 5603 5603 5602 5601 5601 5600 5599 5598 5597 5596 5595 5594 5593 5592 5592 5591 5590 5589
5556 5557 5560 5566 5569 5571 5573 5576 5578 5580 5583 5584 5585 5586 5588 5588 5589 5590 5590 5591 5591 5591 5591 5591 5591 5590 5590 5590 5589 5588 5587 5586 5585 5584 5583 5582 5581 5579 5578 5577 5576 5575 5574 5573
5545 5547 5550 5557 5559 5560 5562 5564 5568 5568 5571 5572 5573 5575 5578 5577 5577 5577 5578 5578 5578 5578 5578 5578 5577 5577 5577 5576 5575 5574 5573 5572 5570 5569 5567 5566 5565 5564 5562 5561 5560 5559 5558 5557
5535 5536 5540 5545 5547 5549 5552 5555 5556 5557 5559 5560 5561 5563 5564 5564 5564 5565 5565 5565 5565 5565 5565 5564 5564 5563 5563 5562 5561 5560 5558 5557 5556 5554 5552 5551 5549 5548 5546 5545 5544 5543 5542 5541
5525 5527 5533 5534 5536 5538 5540 5542 5544 5545 5547 5548 5549 5550 5551 5552 5552 5552 5552 5552 5552 5552 5552 5551 5550 5549 5549 5548 5546 5545 5544 5543 5541 5539 5537 5535 5534 5532 5531 5530 5529 5528 5527 5526
5517 5520 5522 5523 5525 5526 5528 5531 5532 5534 5535 5537 5537 5538 5539 5539 5539 5539 5540 5539 5539 5538 5538 5537 5536 5535 5534 5533 5532 5531 5529 5528 5526 5524 5522 5520 5519 5517 5516 5515 5514 5513 5512 5512
5506 5509 5511 5513 5514 5516 5518 5519 5521 5522 5524 5525 5525 5526 5527 5527 5527 5527 5527 5526 5526 5525 5525 5524 5523 5521 5520 5519 5517 5516 5515 5513 5511 5509 5508 5506 5504 5503 5502 5501 5500 5499 5498 5497
5496 5499 5501 5503 5505 5506 5507 5509 5510 5511 5512 5513 5514 5514 5514 5515 5515 5514 5514 5513 5512 5512 5511 5510 5509 5507 5505 5503 5502 5501 5499 5498 5496 5495 5493 5492 5491 5490 5489 5488 5486 5486 5485 5484
5487 5489 5491 5493 5495 5496 5497 5498 5499 5500 5501 5502 5502 5502 5502 5502 5502 5502 5501 5500 5499 5498 5497 5496 5494 5493 5491 5489 5487 5486 5485 5483 5482 5481 5479 5478 5477 5477 5476 5475 5474 5473 5471 5470
5477 5478 5480 5482 5484 5485 5486 5487 5488 5489 5490 5490 5490 5490 5490 5490 5490 5489 5488 5487 5486 5485 5484 5482 5481 5479 5477 5474 5473 5471 5470 5469 5468 5467 5466 5465 5464 5463 5463 5463 5461 5460 5458 5457
5466 5468 5470 5472 5473 5474 5475 5476 5477 5478 5478 5479 5479 5479 5478 5478 5477 5476 5475 5474 5472 5471 5470 5468 5467 5465 5463 5461 5459 5458 5457 5456 5455 5454 5453 5452 5451 5450 5450 5449 5449 5448 5446 5444
5457 5458 5460 5462 5463 5464 5465 5466 5466 5467 5467 5467 5467 5467 5466 5466 5465 5464 5463 5461 5459 5458 5456 5455 5453 5451 5449 5448 5446 5445 5444 5443 5442 5441 5440 5440 5439 5438 5437 5436 5436 5435 5434 5433
5448 5449 5450 5451 5453 5454 5454 5455 5455 5456 5456 5456 5455 5455 5454 5454 5453 5452 5450 5449 5447 5446 5444 5442 5440 5438 5436 5435 5434 5433 5432 5431 5429 5429 5428 5427 5427 5426 5425 5424 5423 5423 5422 5421
5439 5440 5441 5442 5443 5443 5443 5444 5444 5444 5444 5444 5444 5443 5442 5442 5441 5440 5438 5437 5435 5434 5432 5430 5428 5426 5425 5423 5422 5421 5420 5419 5418 5417 5416 5415 5414 5414 5413 5412 5412 5411 5410 5409
5430 5431 5432 5432 5433 5433 5433 5433 5433 5433 5433 5432 5432 5431 5431 5430 5429 5428 5426 5425 5423 5422 5420 5418 5416 5415 5413 5411 5410 5409 5408 5407 5406 5405 5404 5403 5403 5402 5402 5401 5400 5400 5399 5399
5422 5422 5423 5423 5423 5423 5423 5422 5422 5422 5422 5421 5421 5420 5419 5418 5417 5416 5415 5413 5412 5410 5409 5407 5405 5403 5402 5400 5399 5398 5397 5396 5395 5394 5393 5392 5392 5391 5391 5390 5389 5389 5388 5388
5414 5414 5414 5414 5413 5413 5412 5412 5411 5411 5410 5410 5409 5408 5408 5407 5405 5404 5403 5402 5400 5398 5397 5396 5394 5393 5391 5390 5388 5387 5386 5385 5384 5384 5383 5382 5381 5381 5380 5380 5379 5378 5378 5377
5406 5406 5405 5405 5404 5404 5403 5402 5402 5401 5400 5399 5398 5398 5397 5396 5395 5393 5392 5391 5390 5387 5386 5385 5384 5382 5381 5380 5378 5377 5376 5375 5375 5374 5373 5372 5371 5371 5370 5369 5369 5368 5368 5368
5398 5398 5397 5396 5396 5395 5394 5393 5392 5391 5390 5389 5388 5387 5387 5386 5384 5383 5381 5380 5379 5377 5376 5374 5373 5372 5371 5370 5369 5368 5367 5366 5365 5365 5364 5363 5362 5361 5360 5360 5359 5359 5358 5358
5389 5389 5388 5387 5386 5386 5385 5383 5382 5381 5380 5379 5378 5377 5376 5376 5374 5373 5372 5370 5368 5367 5366 5364 5363 5362 5361 5361 5360 5359 5358 5358 5357 5356 5355 5354 5354 5353 5352 5352 5351 5350 5350 5350
5380 5380 5379 5378 5377 5376 5375 5374 5373 5372 5371 5370 5369 5368 5367 5366 5365 5363 5362 5360 5359 5357 5356 5355 5354 5353 5353 5352 5351 5351 5350 5350 5349 5348 5347 5347 5346 5345 5344 5344 5344 5343 5343 5343
5371 5370 5369 5368 5368 5367 5366 5365 5364 5363 5362 5361 5360 5359 5358 5357 5356 5354 5353 5351 5350 5349 5348 5347 5346 5345 5344 5344 5344 5343 5343 5342 5341 5341 5340 5339 5339 5338 5338 5337 5337 5337 5336 5336
5362 5361 5360 5360 5359 5358 5357 5356 5355 5354 5353 5352 5351 5350 5349 5348 5346 5345 5344 5343 5342 5340 5339 5339 5338 5337 5337 5337 5336 5336 5335 5335 5334 5333 5333 5332 5332 5331 5331 5331 5330 5330 5330 5330
5353 5352 5352 5351 5350 5349 5349 5348 5347 5345 5344 5343 5343 5341 5340 5339 5338 5337 5336 5334 5333 5333 5332 5331 5330 5330 5329 5329 5329 5329 5328 5327 5327 5326 5325 5325 5325 5325 5324 5324 5324 5324 5324 5324